When you browse on this site, cookies collect data to enhance your experience and personalize the content and advertising you see.
Visit our Privacy Policy to learn more. By continuing to use the site, you agree to this use of cookies and data.
  • In Hungary
  • List of Countries
  • For 7 days
  • Water Temperature
  • Satellite Maps
  • Weather Map
  • News
  • Weather Widgets
  • user-avatar
    Login

    Hourly Weather Cuman

    Today, 21 April, Sunday

    Time Temperature Precipitation Wind Pressure Humidity
    00:00 +9°C° 0 mm 2 mps 749 mmHg 66%
    01:00 +8°C° 0 mm 2 mps 749 mmHg 67%
    02:00 +8°C° 0 mm 1 mps 749 mmHg 71%
    03:00 +8°C° 0 mm 1 mps 748 mmHg 72%
    04:00 +7°C° 0 mm 2 mps 748 mmHg 72%
    05:00 +7°C° 0 mm 2 mps 748 mmHg 73%
    06:00 +8°C° 0 mm 2 mps 748 mmHg 72%
    07:00 +9°C° 0 mm 2 mps 748 mmHg 71%
    08:00 +10°C° 0 mm 2 mps 748 mmHg 70%
    09:00 +11°C° 0.3 mm 3 mps 748 mmHg 70%
    10:00 +11°C° 0.3 mm 3 mps 748 mmHg 71%
    11:00 +12°C° 0.3 mm 4 mps 748 mmHg 71%
    12:00 +12°C° 0.2 mm 3 mps 747 mmHg 71%
    13:00 +12°C° 0.2 mm 3 mps 747 mmHg 70%
    14:00 +12°C° 0.2 mm 3 mps 747 mmHg 69%
    15:00 +13°C° 0 mm 2 mps 747 mmHg 66%
    16:00 +14°C° 0 mm 2 mps 747 mmHg 64%
    17:00 +14°C° 0 mm 2 mps 747 mmHg 61%
    18:00 +13°C° 0.1 mm 2 mps 747 mmHg 67%
    19:00 +12°C° 0.1 mm 1 mps 747 mmHg 72%
    20:00 +10°C° 0.1 mm 1 mps 747 mmHg 78%
    21:00 +10°C° 0 mm 1 mps 747 mmHg 80%
    22:00 +10°C° 0 mm 1 mps 747 mmHg 83%
    23:00 +10°C° 0 mm 1 mps 747 mmHg 85%

    Tomorrow, 22 April, Monday

    Time Temperature Precipitation Wind Pressure Humidity
    00:00 +9°C° 0.1 mm 3 mps 747 mmHg 85%
    01:00 +8°C° 0.1 mm 4 mps 748 mmHg 85%
    02:00 +8°C° 0.1 mm 5 mps 748 mmHg 85%
    03:00 +7°C° 0.1 mm 5 mps 748 mmHg 84%
    04:00 +7°C° 0.1 mm 5 mps 748 mmHg 83%
    05:00 +7°C° 0.1 mm 5 mps 749 mmHg 82%
    06:00 +8°C° 0 mm 6 mps 749 mmHg 78%
    07:00 +8°C° 0 mm 6 mps 750 mmHg 74%
    08:00 +9°C° 0 mm 7 mps 750 mmHg 71%
    09:00 +10°C° 0 mm 7 mps 751 mmHg 63%
    10:00 +11°C° 0 mm 7 mps 751 mmHg 55%
    11:00 +12°C° 0 mm 7 mps 751 mmHg 47%
    12:00 +14°C° 0 mm 7 mps 752 mmHg 44%
    13:00 +14°C° 0 mm 7 mps 752 mmHg 42%
    14:00 +15°C° 0 mm 7 mps 752 mmHg 40%
    15:00 +15°C° 0 mm 7 mps 752 mmHg 41%
    16:00 +14°C° 0 mm 6 mps 752 mmHg 42%
    17:00 +14°C° 0 mm 6 mps 752 mmHg 43%
    18:00 +12°C° 0 mm 5 mps 752 mmHg 47%
    19:00 +10°C° 0 mm 5 mps 752 mmHg 52%
    20:00 +10°C° 0 mm 4 mps 752 mmHg 56%
    21:00 +8°C° 0 mm 4 mps 753 mmHg 58%
    22:00 +8°C° 0 mm 4 mps 753 mmHg 60%
    23:00 +7°C° 0 mm 4 mps 753 mmHg 62%

    Day after tomorrow, 23 April, Tuesday

    Time Temperature Precipitation Wind Pressure Humidity
    00:00 +7°C° 0 mm 4 mps 753 mmHg 64%
    01:00 +6°C° 0 mm 4 mps 753 mmHg 65%
    02:00 +6°C° 0 mm 4 mps 753 mmHg 66%
    03:00 +6°C° 0 mm 4 mps 753 mmHg 66%
    04:00 +5°C° 0 mm 5 mps 753 mmHg 67%
    05:00 +5°C° 0 mm 5 mps 753 mmHg 67%
    06:00 +7°C° 0 mm 6 mps 753 mmHg 62%
    07:00 +8°C° 0 mm 6 mps 754 mmHg 57%
    08:00 +10°C° 0 mm 7 mps 754 mmHg 52%
    09:00 +11°C° 0 mm 8 mps 754 mmHg 48%
    10:00 +12°C° 0 mm 9 mps 754 mmHg 44%
    11:00 +15°C° 0 mm 9 mps 754 mmHg 40%
    12:00 +15°C° 0 mm 9 mps 753 mmHg 40%
    13:00 +16°C° 0 mm 9 mps 753 mmHg 39%
    14:00 +16°C° 0 mm 9 mps 753 mmHg 39%
    15:00 +16°C° 0 mm 8 mps 752 mmHg 40%
    16:00 +16°C° 0 mm 8 mps 752 mmHg 42%
    17:00 +16°C° 0 mm 8 mps 752 mmHg 43%
    18:00 +14°C° 0 mm 7 mps 752 mmHg 48%
    19:00 +13°C° 0 mm 6 mps 752 mmHg 52%
    20:00 +12°C° 0 mm 5 mps 752 mmHg 56%
    21:00 +10°C° 0 mm 5 mps 752 mmHg 58%
    22:00 +10°C° 0 mm 6 mps 752 mmHg 59%
    23:00 +9°C° 0 mm 6 mps 752 mmHg 60%

    24 April, Wednesday

    Time Temperature Precipitation Wind Pressure Humidity
    00:00 +9°C° 0 mm 6 mps 752 mmHg 61%
    01:00 +8°C° 0 mm 6 mps 752 mmHg 62%
    02:00 +8°C° 0 mm 6 mps 752 mmHg 63%
    03:00 +8°C° 0 mm 6 mps 752 mmHg 62%
    04:00 +7°C° 0 mm 6 mps 752 mmHg 62%
    05:00 +6°C° 0 mm 7 mps 752 mmHg 61%
    06:00 +8°C° 0 mm 7 mps 752 mmHg 59%
    07:00 +9°C° 0 mm 8 mps 752 mmHg 58%
    08:00 +10°C° 0 mm 9 mps 752 mmHg 56%
    09:00 +12°C° 0 mm 9 mps 752 mmHg 53%
    10:00 +13°C° 0 mm 9 mps 753 mmHg 50%
    11:00 +16°C° 0 mm 9 mps 753 mmHg 46%
    12:00 +16°C° 0 mm 9 mps 752 mmHg 45%
    13:00 +17°C° 0 mm 9 mps 752 mmHg 45%
    14:00 +18°C° 0 mm 9 mps 752 mmHg 44%
    15:00 +17°C° 0 mm 8 mps 752 mmHg 46%
    16:00 +17°C° 0 mm 8 mps 752 mmHg 47%
    17:00 +17°C° 0 mm 7 mps 751 mmHg 49%
    18:00 +16°C° 0 mm 6 mps 751 mmHg 53%
    19:00 +15°C° 0 mm 6 mps 751 mmHg 56%
    20:00 +13°C° 0 mm 5 mps 751 mmHg 59%
    21:00 +13°C° 0 mm 5 mps 752 mmHg 59%
    22:00 +13°C° 0 mm 6 mps 752 mmHg 60%
    23:00 +11°C° 0 mm 6 mps 752 mmHg 60%

    25 April, Thursday

    Time Temperature Precipitation Wind Pressure Humidity
    00:00 +11°C° 0 mm 6 mps 752 mmHg 61%
    01:00 +11°C° 0 mm 6 mps 751 mmHg 63%
    02:00 +10°C° 0 mm 6 mps 751 mmHg 64%
    03:00 +10°C° 0 mm 6 mps 751 mmHg 66%
    04:00 +10°C° 0 mm 6 mps 751 mmHg 69%
    05:00 +9°C° 0 mm 6 mps 751 mmHg 71%
    06:00 +10°C° 0 mm 6 mps 751 mmHg 68%
    07:00 +11°C° 0 mm 6 mps 751 mmHg 66%
    08:00 +12°C° 0 mm 7 mps 752 mmHg 63%
    09:00 +14°C° 0 mm 7 mps 751 mmHg 58%
    10:00 +16°C° 0 mm 7 mps 751 mmHg 54%
    11:00 +17°C° 0 mm 7 mps 751 mmHg 50%
    12:00 +18°C° 0 mm 7 mps 751 mmHg 49%
    13:00 +20°C° 0 mm 7 mps 751 mmHg 49%
    14:00 +21°C° 0 mm 7 mps 750 mmHg 48%
    15:00 +21°C° 0 mm 7 mps 750 mmHg 49%
    16:00 +21°C° 0 mm 7 mps 750 mmHg 51%
    17:00 +21°C° 0 mm 6 mps 749 mmHg 52%
    18:00 +19°C° 0 mm 6 mps 749 mmHg 56%
    19:00 +17°C° 0 mm 5 mps 749 mmHg 61%
    20:00 +15°C° 0 mm 5 mps 749 mmHg 65%
    21:00 +15°C° 0 mm 5 mps 749 mmHg 66%
    22:00 +14°C° 0 mm 5 mps 749 mmHg 67%
    23:00 +14°C° 0 mm 5 mps 749 mmHg 67%

    26 April, Friday

    Time Temperature Precipitation Wind Pressure Humidity
    00:00 +13°C° 0 mm 5 mps 749 mmHg 69%
    01:00 +13°C° 0 mm 4 mps 748 mmHg 71%
    02:00 +12°C° 0 mm 4 mps 748 mmHg 72%
    03:00 +12°C° 0 mm 4 mps 748 mmHg 74%
    04:00 +11°C° 0 mm 4 mps 748 mmHg 75%
    05:00 +11°C° 0 mm 4 mps 748 mmHg 76%
    06:00 +12°C° 0 mm 4 mps 748 mmHg 73%
    07:00 +13°C° 0 mm 4 mps 747 mmHg 70%
    08:00 +14°C° 0 mm 4 mps 747 mmHg 67%
    09:00 +17°C° 0 mm 4 mps 747 mmHg 63%
    10:00 +19°C° 0 mm 4 mps 747 mmHg 59%
    11:00 +21°C° 0 mm 4 mps 747 mmHg 55%
    12:00 +23°C° 0 mm 4 mps 747 mmHg 52%
    13:00 +25°C° 0 mm 4 mps 746 mmHg 49%
    14:00 +26°C° 0 mm 4 mps 746 mmHg 46%
    15:00 +26°C° 0 mm 5 mps 746 mmHg 47%
    16:00 +25°C° 0 mm 5 mps 745 mmHg 49%
    17:00 +25°C° 0 mm 5 mps 745 mmHg 51%
    18:00 +22°C° 0 mm 4 mps 745 mmHg 55%
    19:00 +20°C° 0 mm 4 mps 745 mmHg 59%
    20:00 +18°C° 0 mm 4 mps 745 mmHg 64%
    21:00 +17°C° 0 mm 4 mps 745 mmHg 65%
    22:00 +15°C° 0 mm 4 mps 745 mmHg 66%
    23:00 +14°C° 0 mm 4 mps 745 mmHg 67%
    Show more